This is the latest recevied weather packets stored in our database for station/object KI4NG. If no packets are shown the sender has not sent any weather packets the latest 10 day(s).
| Time | Temp. | Humidity | Pressure | Rain* | Wind** | Luminosity | Snow |
|---|---|---|---|---|---|---|---|
| 1777722518 | 4.44° C | 98% | 1016.6 hPa | 0 mm | - | 35 W/m² | - |
| 1777722215 | 3.89° C | 97% | 1016.5 hPa | 0 mm | - | 29 W/m² | - |
| 1777721912 | 3.89° C | 97% | 1016.7 hPa | 0 mm | - | 25 W/m² | - |
| 1777721609 | 3.89° C | 97% | 1016.7 hPa | 0 mm | - | 23 W/m² | - |
| 1777721308 | 3.89° C | 97% | 1016.7 hPa | 0 mm | - | 19 W/m² | - |
| 1777721004 | 3.89° C | 97% | 1016.6 hPa | 0 mm | - | 13 W/m² | - |
| 1777720702 | 3.89° C | 97% | 1016.6 hPa | 0 mm | - | 13 W/m² | - |
| 1777720399 | 3.89° C | 97% | 1016.4 hPa | 0 mm | - | 16 W/m² | - |
| 1777720097 | 3.89° C | 97% | 1016.4 hPa | 0 mm | - | 12 W/m² | - |
| 1777719795 | 3.89° C | 96% | 1016.6 hPa | 0 mm | - | 8 W/m² | - |
| 1777719492 | 3.89° C | 96% | 1016.2 hPa | 0 mm | - | 6 W/m² | - |
| 1777719189 | 3.89° C | 96% | 1016.4 hPa | 0 mm | - | 3 W/m² | - |
| 1777718887 | 4.44° C | 96% | 1016.4 hPa | 0 mm | - | 2 W/m² | - |
| 1777718583 | 4.44° C | 95% | 1016.4 hPa | 0 mm | - | 0 W/m² | - |
| 1777718281 | 4.44° C | 95% | 1016.2 hPa | 0 mm | - | 0 W/m² | - |
| 1777717978 | 4.44° C | 95% | 1016.1 hPa | 0 mm | - | 0 W/m² | - |
| 1777717675 | 4.44° C | 95% | 1016.5 hPa | 0 mm | - | 0 W/m² | - |
| 1777717371 | 4.44° C | 95% | 1016.2 hPa | 0 mm | - | 0 W/m² | - |
| 1777717070 | 4.44° C | 95% | 1016.2 hPa | 0 mm | - | 0 W/m² | - |
| 1777716767 | 5° C | 95% | 1016 hPa | 0 mm | - | 0 W/m² | - |
| 1777716465 | 5° C | 95% | 1016.2 hPa | 0 mm | - | 0 W/m² | - |
| 1777716164 | 5° C | 95% | 1016 hPa | 0 mm | - | 0 W/m² | - |
| 1777715862 | 5° C | 95% | 1015.8 hPa | 0 mm | - | 0 W/m² | - |
| 1777715559 | 5° C | 95% | 1015.8 hPa | 0 mm | - | 0 W/m² | - |
| 1777715257 | 5° C | 95% | 1015.9 hPa | 0 mm | - | 0 W/m² | - |
* Rain latest hour (hover to see other rain measurements)
** Current wind speed in m/s (hover to see current wind gust speed)